Regional Weather Roundup
Issued by NWS Sterling, VA

Home | Current Version | Previous Version | Text Only | Print | Product List | Glossary Off
Versions: 1 2 3 4 5 6 7 8 9 10 11 12 13 14 15 16 17 18 19 20 21 22 23 24 25 26 27 28 29 30 31 32 33 34 35 36 37 38 39 40 41 42 43 44 45 46 47 48 49 50

000
ASUS41 KLWX 290710
RWRLWX

REGIONAL WEATHER ROUNDUP
NATIONAL WEATHER SERVICE BALTIMORE MD/WASHINGTON DC
300 AM EDT SAT AUG 29 2015

Note: "FAIR" indicates few or no clouds below 12,000 feet
with no significant weather and/or obstructions to visibility.
 TC=TEMPERATURE CELSIUS

 * =Non NWS site. Station does not report precipitation (e.g. rain,
    snow, etc.), thunder, or fog.

DCZ001-MDZ009-015-VAZ040>042-051-053>054-290800-
WASHINGTON METRO

CITY           SKY/WX    TMP DP  RH WIND       PRES   REMARKS
WASHINGTON NAT MOCLDY    71  62  73 S6        30.20F
DULLES         PTCLDY    67  61  81 CALM      30.19F
ANDREWS AFB    PTCLDY    65  59  79 S2        30.19F
FT BELVOIR     PTCLDY    63  61  94 CALM      30.19F
QUANTICO       MOCLDY    71  57  61 W5        30.20F
COLLEGE PARK*  CLEAR     63  63 100 CALM      30.20S
LEESBURG*      CLEAR     68  64  88 S5        30.20F
MANASSAS*      PTCLDY    63  63 100 S3        30.20F
GAITHERSBURG*  CLEAR     63  57  82 CALM      30.24S

$$

MDZ006>007-011-014-290800-
BALTIMORE METRO

CITY           SKY/WX    TMP DP  RH WIND       PRES   REMARKS
BWI AIRPORT    PTCLDY    63  60  90 CALM      30.20S
MD SCIENCE CTR   N/A     71  58  63 MISG      30.20S
MARTIN STATE   CLEAR     64  63  94 CALM      30.21S
ANNAPOLIS      PTCLDY    69  63  81 CALM      30.19S
FORT MEADE*    CLEAR     59  55  88 CALM      30.22S

$$

MDZ012-015-019>023-290800-
MARYLAND EASTERN SHORE

CITY           SKY/WX    TMP DP  RH WIND       PRES   REMARKS
OCEAN CITY     CLEAR     57  55  93 CALM      30.20S
SALISBURY      CLEAR     59  57  93 CALM      30.20S
BAY BRIDGE AP*   N/A     72  61  68 S3        30.20S

$$

MDZ017>025-290800-
SOUTHERN MARYLAND

CITY           SKY/WX    TMP DP  RH WIND       PRES   REMARKS
PATUXENT RIVER CLEAR     60  57  89 CALM      30.19F
ST INIGOES     PTCLDY    62  60  93 CALM      30.19S
LEONARDTOWN*   PTCLDY    63  59  88 CALM      30.21F

$$

MDZ003>005-290800-
NORTH CENTRAL MARYLAND

CITY           SKY/WX    TMP DP  RH WIND       PRES   REMARKS
FREDERICK*     NOT AVBL
HAGERSTOWN APT CLEAR     68  59  73 SE3       30.19S
WESTMINSTER*   CLEAR     64  57  77 CALM      30.20F

$$

MDZ501>502-290800-
WESTERN MARYLAND

CITY           SKY/WX    TMP DP  RH WIND       PRES   REMARKS
OAKLAND*       CLEAR     59  54  82 S7        30.25S
CUMBERLAND*    CLEAR     61  59  94 CALM      30.22F

$$

VAZ025>031-290800-
SHENANDOAH VALLEY

CITY           SKY/WX    TMP DP  RH WIND       PRES   REMARKS
WINCHESTER*    CLEAR     63  59  88 CALM      30.18F
FRONT ROYAL*   FAIR      61  59  94 CALM      30.17F
LURAY*         FAIR      61  61 100 CALM      30.19F
NEW MARKET*    FAIR      61  60  97 CALM      30.19S
STAUNTON*      CLEAR     65  60  86 CALM      30.22F
WAYNESBORO*    FAIR      65  59  81 CALM      30.22S

$$

WVZ021-048>050-054>055-290800-
EASTERN WEST VIRGINIA PANHANDLE

CITY           SKY/WX    TMP DP  RH WIND       PRES   REMARKS
MARTINSBURG    PTCLDY    62  59  90 CALM      30.19S
PETERSBURG*    PTCLDY    58  58  99 CALM      30.20S FOG

$$

VAZ036>039-050-290800-
CENTRAL FOOTHILLS

CITY           SKY/WX    TMP DP  RH WIND       PRES   REMARKS
CHARLOTTESVILL PTCLDY    68  60  75 CALM      30.20F
CULPEPER*      PTCLDY    62  61  97 CALM      30.20F
ORANGE*        PTCLDY    63  61  94 CALM      30.22S
GORDONSVILLE*  PTSUNNY   64  62  94 CALM      30.19F
WARRENTON*     FAIR      61  60  97 CALM      30.20S

$$

VAZ055>057-290800-
NORTH AND CENTRAL PIEDMONT

CITY           SKY/WX    TMP DP  RH WIND       PRES   REMARKS
FREDERICKSBRG* CLEAR     67  62  83 CALM      30.19S
STAFFORD*      PTCLDY    60  58  94 CALM      30.23F

$$

NCZ024-NYZ072-PAZ021-071-VAZ022-071-290800-
OTHER REGIONAL OBSERVATIONS

CITY           SKY/WX    TMP DP  RH WIND       PRES   REMARKS
NEW YORK CITY  CLEAR     70  53  54 CALM      30.21S
PHILADELPHIA   CLEAR     69  61  75 SW3       30.20S
PITTSBURGH     PTCLDY    59  53  80 CALM      30.17S
ROANOKE        CLEAR     65  60  84 CALM      30.22F
RICHMOND       MOCLDY    66  60  81 CALM      30.20S
RALEIGH        MOCLDY    64  60  87 CALM      30.20F

$$

ANZ530>537-290800-
MARINE OBSERVATIONS

STATION/POSITION TIME  TEMP    WIND        PRES
                       AIR SEA DIR/SP/G
                 (UTC) (F)     (DEG/KT/KT) (MB)
THOMAS PT LIGHT  NOT AVBL

$$




USA.gov is the U.S. government's official web portal to all federal, state and local government web resources and services.